FW7822 Weather Reports


time (UTC)temp
C
wind
direction
speed
KPH
gust
KPH
rain 1hr
cm
rain 24hr
cm
rain mn
cm
humidity
%
barometer
mb
20260503005446 13 97 0.0 1.6 0.00 0.00 0.00 38 1014.9
20260503004948 14 140 1.6 1.6 0.00 0.00 0.00 36 1014.9
20260503004446 14 89 1.6 3.2 0.00 0.00 0.00 36 1014.9
20260503003947 15 65 1.6 3.2 0.00 0.00 0.00 34 1014.9
20260503003447 15 75 1.6 3.2 0.00 0.00 0.00 32 1014.9
20260503002946 15 115 1.6 3.2 0.00 0.00 0.00 32 1015.0
20260503002447 15 32 1.6 4.8 0.00 0.00 0.00 31 1015.0
20260503001946 16 104 1.6 3.2 0.00 0.00 0.00 31 1015.1
20260503001446 16 99 1.6 3.2 0.00 0.00 0.00 30 1015.1
20260503000946 16 50 1.6 3.2 0.00 0.00 0.00 29 1015.1
20260503000447 16 37 3.2 4.8 0.00 0.00 0.00 28 1015.2
20260502235946 16 174 3.2 6.4 0.00 0.00 0.00 28 1015.2
20260502235446 16 328 3.2 6.4 0.00 0.00 0.00 28 1015.3
20260502234946 16 50 1.6 3.2 0.00 0.00 0.00 28 1015.3
20260502234446 16 13 3.2 4.8 0.00 0.00 0.00 28 1015.4
20260502233947 16 349 3.2 6.4 0.00 0.00 0.00 27 1015.4
20260502233446 16 321 4.8 9.7 0.00 0.00 0.00 27 1015.5
20260502232946 16 74 3.2 6.4 0.00 0.00 0.00 28 1015.5
20260502232448 16 14 3.2 4.8 0.00 0.00 0.00 27 1015.6
20260502231947 16 306 4.8 8.0 0.00 0.00 0.00 27 1015.6
20260502231446 16 316 3.2 6.4 0.00 0.00 0.00 27 1015.6
20260502230946 16 264 3.2 11.3 0.00 0.00 0.00 27 1015.7
20260502230447 16 21 3.2 4.8 0.00 0.00 0.00 27 1015.7
20260502225946 16 301 6.4 8.0 0.00 0.00 0.00 26 1015.8
20260502225446 16 326 4.8 8.0 0.00 0.00 0.00 27 1015.8
20260502224947 16 187 3.2 4.8 0.00 0.00 0.00 27 1015.9
20260502224446 16 316 4.8 12.9 0.00 0.00 0.00 28 1015.9
20260502223946 16 348 3.2 8.0 0.00 0.00 0.00 27 1016.0
20260502223447 16 327 4.8 8.0 0.00 0.00 0.00 27 1016.1
20260502222946 16 293 3.2 6.4 0.00 0.00 0.00 26 1016.1
20260502222446 16 272 3.2 6.4 0.00 0.00 0.00 26 1016.1
20260502221946 16 292 6.4 14.5 0.00 0.00 0.00 26 1016.1
20260502221446 16 317 6.4 11.3 0.00 0.00 0.00 26 1016.2
20260502220946 16 341 3.2 8.0 0.00 0.00 0.00 27 1016.2
20260502220446 16 316 6.4 9.7 0.00 0.00 0.00 26 1016.2
20260502215947 16 15 3.2 6.4 0.00 0.00 0.00 26 1016.3
20260502215446 16 36 3.2 6.4 0.00 0.00 0.00 27 1016.3
20260502214947 16 328 6.4 12.9 0.00 0.00 0.00 27 1016.4
20260502214447 17 289 11.3 17.7 0.00 0.00 0.00 26 1016.5
20260502213947 17 338 3.2 6.4 0.00 0.00 0.00 27 1016.5
20260502213446 16 175 4.8 9.7 0.00 0.00 0.00 27 1016.5
20260502212946 17 313 4.8 11.3 0.00 0.00 0.00 26 1016.5
20260502212447 16 53 1.6 4.8 0.00 0.00 0.00 26 1016.6
20260502211947 16 346 4.8 9.7 0.00 0.00 0.00 27 1016.7
20260502211446 17 295 8.0 12.9 0.00 0.00 0.00 25 1016.7
20260502210946 16 225 4.8 8.0 0.00 0.00 0.00 26 1016.7
20260502210447 16 13 3.2 4.8 0.00 0.00 0.00 27 1016.8
20260502205946 16 20 3.2 9.7 0.00 0.00 0.00 28 1016.9
20260502205446 16 148 4.8 9.7 0.00 0.00 0.00 26 1016.8
20260502204948 16 2 3.2 6.4 0.00 0.00 0.00 28 1017.0
20260502204448 16 309 4.8 11.3 0.00 0.00 0.00 28 1017.1
20260502203946 16 282 9.7 16.1 0.00 0.00 0.00 26 1017.1
20260502203446 16 318 6.4 9.7 0.00 0.00 0.00 27 1017.1
20260502202947 16 282 6.4 12.9 0.00 0.00 0.00 27 1017.2
20260502202447 16 303 6.4 12.9 0.00 0.00 0.00 27 1017.3
20260502201946 16 152 4.8 9.7 0.00 0.00 0.00 28 1017.3
20260502201446 16 303 4.8 9.7 0.00 0.00 0.00 27 1017.4
20260502200946 16 26 3.2 4.8 0.00 0.00 0.00 26 1017.5
20260502200446 16 222 6.4 11.3 0.00 0.00 0.00 26 1017.6
20260502195946 16 336 6.4 11.3 0.00 0.00 0.00 27 1017.7
20260502195446 16 7 4.8 8.0 0.00 0.00 0.00 28 1017.9
20260502194946 16 159 4.8 9.7 0.00 0.00 0.00 27 1017.9
20260502194450 16 160 3.2 6.4 0.00 0.00 0.00 26 1017.9
20260502193947 15 77 3.2 6.4 0.00 0.00 0.00 29 1018.0
20260502193447 15 322 4.8 9.7 0.00 0.00 0.00 29 1018.1
20260502192946 15 215 4.8 12.9 0.00 0.00 0.00 28 1018.1
20260502192447 15 146 4.8 8.0 0.00 0.00 0.00 28 1018.1
20260502191947 15 229 6.4 11.3 0.00 0.00 0.00 29 1018.2
20260502191446 15 81 4.8 6.4 0.00 0.00 0.00 26 1018.3
20260502190946 15 318 6.4 9.7 0.00 0.00 0.00 27 1018.4
20260502190447 15 298 8.0 12.9 0.00 0.00 0.00 28 1018.5
20260502185946 16 313 6.4 14.5 0.00 0.00 0.00 28 1018.5
20260502185446 15 225 3.2 6.4 0.00 0.00 0.00 29 1018.5
20260502184947 15 151 3.2 6.4 0.00 0.00 0.00 25 1018.5
20260502184447 15 349 4.8 6.4 0.00 0.00 0.00 28 1018.7
20260502183946 15 303 4.8 9.7 0.00 0.00 0.00 28 1018.7
20260502183446 15 72 3.2 4.8 0.00 0.00 0.00 27 1018.7
20260502182946 15 298 6.4 9.7 0.00 0.00 0.00 28 1019.0
20260502182446 15 230 6.4 9.7 0.00 0.00 0.00 28 1019.0
20260502181946 15 302 6.4 9.7 0.00 0.00 0.00 28 1019.0
20260502181446 15 294 4.8 9.7 0.00 0.00 0.00 28 1019.1
20260502180948 14 29 4.8 8.0 0.00 0.00 0.00 28 1019.1
20260502180447 14 111 4.8 6.4 0.00 0.00 0.00 27 1019.1
20260502170447 13 63 3.2 6.4 0.00 0.00 0.00 29 1019.8
20260502163946 13 335 4.8 6.4 0.00 0.00 0.00 29 1020.0
20260502163448 13 291 6.4 11.3 0.00 0.00 0.00 31 1020.1
20260502162947 13 282 4.8 9.7 0.00 0.00 0.00 31 1020.1
20260502162446 13 351 4.8 6.4 0.00 0.00 0.00 32 1020.1
20260502161946 13 22 3.2 6.4 0.00 0.00 0.00 33 1020.1
20260502161447 12 315 3.2 6.4 0.00 0.00 0.00 30 1020.3
20260502160946 13 318 6.4 14.5 0.00 0.00 0.00 32 1020.3
20260502160446 13 323 3.2 6.4 0.00 0.00 0.00 33 1020.3
20260502151947 12 10 4.8 6.4 0.00 0.00 0.00 35 1020.5
20260502151446 12 298 6.4 9.7 0.00 0.00 0.00 34 1020.6
20260502150946 11 240 3.2 6.4 0.00 0.00 0.00 37 1020.5
20260502150446 11 309 6.4 9.7 0.00 0.00 0.00 37 1020.5
20260502130446 5 281 1.6 3.2 0.00 0.00 0.00 68 1020.8
20260502123451 3 318 1.6 3.2 0.00 0.00 0.00 71 1020.8
20260502122947 3 18 0.0 1.6 0.00 0.00 0.00 72 1020.8
20260502122446 2 19 0.0 1.6 0.00 0.00 0.00 74 1020.7
20260502121947 2 104 1.6 1.6 0.00 0.00 0.00 71 1020.7
20260502121447 2 103 0.0 0.0 0.00 0.00 0.00 73 1020.7
20260502120946 1 0 0.0 0.0 0.00 0.00 0.00 75 1020.7
20260502120447 0 85 0.0 1.6 0.00 0.00 0.00 79 1020.6
20260502115446 0 39 0.0 1.6 0.00 0.00 0.00 83 1020.5
20260502114946 -1 54 0.0 0.0 0.00 0.00 0.00 86 1020.4
20260502114447 -1 345 0.0 0.0 0.00 0.00 0.00 87 1020.3
20260502113946 -1 132 0.0 1.6 0.00 0.00 0.00 87 1020.3
20260502113446 -1 0 0.0 0.0 0.00 0.00 0.00 86 1020.2
20260502112946 -1 92 0.0 1.6 0.00 0.00 0.00 87 1020.2
20260502112447 -1 104 0.0 1.6 0.00 0.00 0.00 88 1020.2
20260502111947 -1 0 0.0 0.0 0.00 0.00 0.00 87 1020.2
20260502111446 -1 65 0.0 1.6 0.00 0.00 0.00 87 1020.2
20260502110946 -1 0 0.0 0.0 0.00 0.00 0.00 87 1020.1
20260502110446 -1 0 0.0 0.0 0.00 0.00 0.00 87 1020.1
20260502105946 -1 63 0.0 0.0 0.00 0.00 0.00 88 1020.1
20260502105448 -1 91 0.0 0.0 0.00 0.00 0.00 87 1020.1
20260502104948 -1 172 0.0 1.6 0.00 0.00 0.00 87 1020.0
20260502104447 -1 132 0.0 1.6 0.00 0.00 0.00 86 1020.0
20260502103946 -1 98 0.0 1.6 0.00 0.00 0.00 86 1019.9
20260502103446 -1 98 0.0 1.6 0.00 0.00 0.00 85 1019.9
20260502102946 -1 164 0.0 1.6 0.00 0.00 0.00 85 1019.9
20260502102446 -1 117 0.0 1.6 0.00 0.00 0.00 85 1019.9
20260502101947 -1 0 0.0 0.0 0.00 0.00 0.00 86 1019.9
20260502101446 -1 52 0.0 0.0 0.00 0.00 0.00 85 1019.9
20260502100946 0 0 0.0 0.0 0.00 0.00 0.00 85 1019.9
20260502100447 0 0 0.0 0.0 0.00 0.00 0.00 84 1019.9
20260502091446 0 1 0.0 1.6 0.00 0.00 0.00 80 1019.8
20260502090947 0 83 0.0 1.6 0.00 0.00 0.00 79 1019.8
20260502090448 0 0 0.0 0.0 0.00 0.00 0.00 77 1019.9
20260502071446 1 61 0.0 1.6 0.00 0.00 0.00 76 1019.8
20260502070946 2 90 0.0 1.6 0.00 0.00 0.00 74 1019.8
20260502070447 2 0 0.0 0.0 0.00 0.00 0.00 72 1019.8
20260502065947 2 61 0.0 1.6 0.00 0.00 0.00 71 1019.8
20260502065446 2 26 1.6 1.6 0.00 0.00 0.00 68 1019.8
20260502064947 2 32 0.0 1.6 0.00 0.00 0.00 66 1019.8
20260502064447 2 317 0.0 0.0 0.00 0.00 0.00 66 1019.9
20260502063947 2 0 0.0 0.0 0.00 0.00 0.00 67 1019.8
20260502063446 2 0 0.0 0.0 0.00 0.00 0.00 67 1019.8
20260502062946 2 0 0.0 0.0 0.00 0.00 0.00 65 1019.8
20260502062447 3 0 0.0 0.0 0.00 0.00 0.00 65 1019.9
20260502061946 3 0 0.0 0.0 0.00 0.00 0.00 65 1019.9
20260502061447 3 0 0.0 0.0 0.00 0.00 0.00 66 1019.9
20260502060946 3 325 0.0 1.6 0.00 0.00 0.00 67 1019.9
20260502060446 3 319 0.0 1.6 0.00 0.00 0.00 66 1019.9
20260502055946 3 0 0.0 0.0 0.00 0.00 0.00 67 1019.8
20260502055446 3 324 0.0 1.6 0.00 0.00 0.00 67 1019.8
20260502054946 3 112 0.0 1.6 0.00 0.00 0.00 66 1019.8
20260502054446 3 339 0.0 1.6 0.00 0.00 0.00 63 1019.7
20260502053947 3 339 1.6 1.6 0.00 0.00 0.00 64 1019.7
20260502053447 3 351 0.0 1.6 0.00 0.00 0.00 63 1019.7
20260502052946 3 330 0.0 1.6 0.00 0.00 0.00 63 1019.7
20260502052446 3 0 0.0 0.0 0.00 0.00 0.00 63 1019.6
20260502051946 4 341 0.0 1.6 0.00 0.00 0.00 63 1019.7
20260502051446 4 316 0.0 1.6 0.00 0.00 0.00 60 1019.6
20260502050947 4 332 3.2 3.2 0.00 0.00 0.00 60 1019.6
20260502050446 4 330 3.2 3.2 0.00 0.00 0.00 60 1019.6
20260502045951 5 356 0.0 1.6 0.00 0.00 0.00 59 1019.6
20260502045446 5 2 1.6 3.2 0.00 0.00 0.00 58 1019.5
20260502044947 5 2 3.2 3.2 0.00 0.00 0.00 58 1019.5
20260502044446 5 8 1.6 3.2 0.00 0.00 0.00 59 1019.4
20260502043946 5 354 0.0 3.2 0.00 0.00 0.00 58 1019.4
20260502043446 5 11 3.2 3.2 0.00 0.00 0.00 58 1019.5
20260502042946 5 350 1.6 3.2 0.00 0.00 0.00 58 1019.4
20260502042446 5 2 3.2 3.2 0.00 0.00 0.00 58 1019.4
20260502041946 5 29 0.0 1.6 0.00 0.00 0.00 61 1019.3
20260502041446 5 315 0.0 1.6 0.00 0.00 0.00 62 1019.3
20260502040947 5 0 0.0 0.0 0.00 0.00 0.00 61 1019.3
20260502040446 5 12 0.0 0.0 0.00 0.00 0.00 59 1019.3
20260502035946 5 43 0.0 1.6 0.00 0.00 0.00 57 1019.2
20260502035446 5 329 0.0 1.6 0.00 0.00 0.00 57 1019.2
20260502034947 6 312 0.0 1.6 0.00 0.00 0.00 56 1019.2
20260502034446 6 318 1.6 1.6 0.00 0.00 0.00 56 1019.2
20260502033946 6 334 0.0 1.6 0.00 0.00 0.00 56 1019.2
20260502033447 6 333 0.0 1.6 0.00 0.00 0.00 54 1019.1
20260502032949 6 270 0.0 1.6 0.00 0.00 0.00 53 1019.1
20260502032446 6 327 0.0 1.6 0.00 0.00 0.00 54 1019.0
20260502031946 6 296 0.0 3.2 0.00 0.00 0.00 54 1019.0
20260502031446 6 339 3.2 3.2 0.00 0.00 0.00 51 1018.8
20260502030946 6 335 1.6 3.2 0.00 0.00 0.00 51 1018.8
20260502030446 7 357 0.0 1.6 0.00 0.00 0.00 51 1018.8
20260502025946 7 355 3.2 3.2 0.00 0.00 0.00 50 1018.7
20260502025446 7 355 3.2 3.2 0.00 0.00 0.00 49 1018.6
20260502024947 7 354 3.2 3.2 0.00 0.00 0.00 49 1018.6
20260502024446 7 358 1.6 3.2 0.00 0.00 0.00 50 1018.6
20260502023946 7 5 1.6 3.2 0.00 0.00 0.00 50 1018.5
20260502023446 7 7 1.6 3.2 0.00 0.00 0.00 50 1018.4
20260502022946 7 6 1.6 3.2 0.00 0.00 0.00 49 1018.3
20260502022447 7 357 3.2 4.8 0.00 0.00 0.00 48 1018.3
20260502021946 8 356 3.2 3.2 0.00 0.00 0.00 47 1018.2
20260502021446 8 5 3.2 3.2 0.00 0.00 0.00 45 1018.2
20260502020946 8 357 4.8 6.4 0.00 0.00 0.00 45 1018.1
20260502020446 8 358 3.2 4.8 0.00 0.00 0.00 45 1018.1
20260502015946 8 8 3.2 4.8 0.00 0.00 0.00 43 1018.0
20260502015447 8 7 4.8 6.4 0.00 0.00 0.00 43 1017.9
20260502014947 9 6 4.8 4.8 0.00 0.00 0.00 43 1017.9
20260502014446 9 11 3.2 4.8 0.00 0.00 0.00 43 1017.8
20260502013947 9 13 4.8 6.4 0.00 0.00 0.00 42 1017.7
20260502013446 9 8 4.8 6.4 0.00 0.00 0.00 43 1017.6
20260502012947 9 8 4.8 8.0 0.00 0.00 0.00 42 1017.5
20260502012447 10 9 4.8 4.8 0.00 0.00 0.00 42 1017.5
20260502011946 10 9 4.8 8.0 0.00 0.00 0.00 41 1017.4
20260502011446 10 14 6.4 8.0 0.00 0.00 0.00 41 1017.4
20260502010946 10 8 6.4 8.0 0.00 0.00 0.00 40 1017.3
20260502010446 10 359 6.4 6.4 0.00 0.00 0.00 39 1017.2
20260502005947 11 18 4.8 8.0 0.00 0.00 0.00 40 1017.2